Location: Le Hiès Ruisseau
(43.3000°N, 0.4500°W)
Time: 12:04:16
(UTC+00:00)

Cosmos 1328 - Pass Details

Date: 28 January 2023
Orbit: 518 x 544 km, 82.5° (Epoch: 19 March)

Event Time Altitude Azimuth Distance (km) Brightness Sun altitude
Rises 18:40:37 0° 188° (S) 2,706 7.6 -16.9°
Reaches altitude 10° 18:42:46 10° 189° (S) 1,816 6.7 -17.3°
Maximum altitude 18:46:47 84° 279° (W) 556 3.8 -18.0°
Drops below altitude 10° 18:50:48 10° 7° (N) 1,822 6.3 -18.8°
Enters shadow 18:51:51 - 8° (N) 2,254 6.8 -18.9°
